DW1375 Weather Reports


Display with metric or nautical units.
time (UTC)temp
F
wind
direction
speed
MPH
gust
MPH
rain 1hr
in
rain 24hr
in
rain mn
in
humidity
%
barometer
mb
20210926223118 79 5 0.0 2.0 0.00 0.00 0.00 61 1020.0
20210926221638 80 5 0.0 1.0 0.00 0.00 0.00 58 1020.0
20210926220116 81 5 0.0 1.0 0.00 0.05 0.00 55 1020.1
20210926214543 82 5 0.0 3.0 0.00 0.05 0.00 49 1020.2
20210926213140 81 9 0.0 2.0 0.00 0.05 0.00 50 1020.2
20210926211550 82 9 1.0 5.0 0.00 0.05 0.00 51 1020.3
20210926210144 82 20 2.0 6.0 0.00 0.06 0.00 53 1020.3
20210926204643 82 5 0.0 4.0 0.00 0.06 0.00 49 1020.2
20210926203158 82 15 0.0 4.0 0.00 0.06 0.00 51 1020.1
20210926201636 82 24 0.0 1.0 0.00 0.06 0.00 54 1020.4
20210926200042 82 24 0.0 2.0 0.00 0.06 0.00 51 1020.4
20210926194624 82 300 3.0 9.0 0.00 0.06 0.00 46 1020.6
20210926193045 82 324 1.0 3.0 0.00 0.06 0.00 49 1020.7
20210926191556 82 355 0.0 3.0 0.00 0.06 0.00 51 1021.1
20210926190043 82 33 1.0 5.0 0.00 0.06 0.00 51 1021.4
20210926184537 81 38 1.0 4.0 0.00 0.06 0.00 52 1021.7
20210926183105 82 327 2.0 4.0 0.00 0.06 0.00 50 1022.0
20210926181559 82 165 0.0 2.0 0.00 0.06 0.00 51 1022.2
20210926180028 81 159 1.0 3.0 0.00 0.06 0.00 56 1022.6
20210926174626 81 134 1.0 2.0 0.00 0.06 0.00 56 1022.7
20210926173025 80 135 0.0 2.0 0.00 0.06 0.00 54 1022.9
20210926171557 80 182 0.0 3.0 0.00 0.06 0.00 56 1023.2
20210926170027 80 99 1.0 3.0 0.00 0.06 0.00 57 1023.4
20210926164539 79 142 1.0 3.0 0.00 0.06 0.00 63 1023.5
20210926163013 78 45 0.0 2.0 0.00 0.06 0.00 64 1023.6
20210926161504 78 46 1.0 3.0 0.00 0.06 0.00 67 1023.8
20210926160003 77 89 0.0 3.0 0.00 0.06 0.00 66 1024.0
20210926154609 76 43 0.0 2.0 0.00 0.06 0.00 73 1024.0
20210926153127 75 71 0.0 2.0 0.00 0.06 0.00 76 1024.1
20210926151538 74 71 0.0 3.0 0.00 0.06 0.00 79 1023.9
20210926150039 71 71 0.0 1.0 0.00 0.06 0.00 85 1023.8
20210926144608 69 71 0.0 1.0 0.00 0.06 0.00 87 1023.8
20210926143137 68 71 0.0 0.0 0.00 0.06 0.00 91 1023.8
20210926141718 66 71 0.0 1.0 0.00 0.06 0.00 93 1023.7
20210926140119 64 71 0.0 1.0 0.00 0.06 0.00 96 1023.6
20210926134612 62 71 0.0 0.0 0.00 0.06 0.00 99 1023.6
20210926133055 61 71 0.0 0.0 0.00 0.06 0.00 99 1023.4
20210926131538 57 71 0.0 0.0 0.00 0.06 0.00 98 1023.4
20210926130124 56 71 0.0 0.0 0.00 0.06 0.00 98 1023.2
20210926124610 56 71 0.0 0.0 0.00 0.06 0.00 98 1023.2
20210926123036 56 71 0.0 0.0 0.00 0.06 0.00 97 1023.1
20210926121538 56 71 0.0 0.0 0.00 0.06 0.00 97 1022.8
20210926120039 55 71 0.0 0.0 0.00 0.06 0.00 97 1022.7
20210926114531 55 71 0.0 0.0 0.00 0.06 0.00 97 1022.6
20210926113031 56 71 0.0 0.0 0.00 0.06 0.00 97 1022.5
20210926111520 56 71 0.0 0.0 0.00 0.06 0.00 97 1022.4
20210926110027 56 71 0.0 0.0 0.00 0.06 0.00 97 1022.2
20210926104520 56 71 0.0 0.0 0.00 0.06 0.00 97 1022.2
20210926103023 56 71 0.0 0.0 0.00 0.06 0.00 97 1021.9
20210926101530 56 71 0.0 0.0 0.00 0.06 0.00 97 1021.9
20210926100011 56 71 0.0 0.0 0.00 0.06 0.00 97 1021.8
20210926094546 56 71 0.0 0.0 0.00 0.06 0.00 97 1021.7
20210926093023 56 71 0.0 0.0 0.00 0.06 0.00 97 1021.3
20210926091507 57 71 0.0 0.0 0.00 0.06 0.00 97 1021.3
20210926090006 57 71 0.0 0.0 0.00 0.06 0.00 97 1021.3
20210926084511 57 71 0.0 0.0 0.00 0.06 0.00 97 1021.2
20210926083017 57 71 0.0 0.0 0.00 0.06 0.00 97 1021.2
20210926081516 57 71 0.0 0.0 0.00 0.06 0.00 97 1021.3
20210926080003 57 71 0.0 0.0 0.00 0.06 0.00 97 1021.4
20210926074728 57 71 0.0 0.0 0.00 0.06 0.00 97 1021.4
20210926073249 58 71 0.0 0.0 0.00 0.06 0.00 97 1021.3
20210926071631 58 71 0.0 0.0 0.00 0.06 0.00 97 1021.4
20210926070202 58 71 0.0 0.0 0.00 0.06 0.00 97 1021.4
20210926064620 58 71 0.0 0.0 0.00 0.06 0.00 97 1021.5
20210926063107 58 71 0.0 0.0 0.00 0.06 0.00 97 1021.4
20210926061610 59 71 0.0 0.0 0.00 0.06 0.00 97 1021.4
20210926060200 59 71 0.0 0.0 0.00 0.06 0.00 97 1021.4
20210926054633 59 71 0.0 0.0 0.00 0.06 0.00 97 1021.4
20210926053306 59 71 0.0 0.0 0.00 0.06 0.00 96 1021.4
20210926051630 59 71 0.0 0.0 0.00 0.06 0.00 97 1021.5
20210926050126 60 71 0.0 0.0 0.00 0.06 0.06 97 1021.6
20210926044630 60 71 0.0 0.0 0.00 0.06 0.06 97 1021.5
20210926043203 60 71 0.0 0.0 0.00 0.06 0.06 97 1021.4
20210926041609 60 71 0.0 0.0 0.00 0.06 0.06 96 1021.4
20210926040046 61 71 0.0 0.0 0.00 0.06 0.06 96 1021.5
20210926034607 61 71 0.0 0.0 0.00 0.06 0.06 96 1021.4
20210926033020 61 71 0.0 0.0 0.00 0.06 0.06 96 1021.2
20210926031539 62 71 0.0 0.0 0.00 0.06 0.06 96 1021.0
20210926030007 62 71 0.0 0.0 0.00 0.06 0.06 96 1020.9
20210926024509 62 71 0.0 0.0 0.00 0.06 0.06 96 1020.8
20210926023007 63 71 0.0 0.0 0.00 0.06 0.06 96 1020.7
20210926021506 63 71 0.0 0.0 0.00 0.06 0.06 95 1020.6
20210926020041 64 71 0.0 0.0 0.00 0.06 0.06 96 1020.6
20210926014507 64 71 0.0 0.0 0.00 0.06 0.06 95 1020.5
20210926013012 64 71 0.0 0.0 0.00 0.06 0.06 94 1020.4
20210926011503 65 71 0.0 0.0 0.00 0.06 0.06 93 1020.1
20210926010004 65 71 0.0 0.0 0.00 0.06 0.06 94 1020.1
20210926004502 66 71 0.0 0.0 0.00 0.06 0.06 93 1020.0
20210926003006 66 71 0.0 0.0 0.00 0.06 0.06 92 1019.9
20210926001501 67 71 0.0 0.0 0.00 0.06 0.06 91 1019.9
20210926000200 68 71 0.0 0.0 0.00 0.06 0.06 89 1019.9
20210925234632 69 71 0.0 0.0 0.00 0.06 0.06 87 1019.8
20210925233130 71 71 0.0 0.0 0.00 0.06 0.06 86 1019.8
20210925231715 72 71 0.0 0.0 0.00 0.06 0.06 81 1019.9
20210925230222 74 71 0.0 0.0 0.00 0.06 0.06 78 1019.9
20210925224601 76 71 0.0 0.0 0.01 0.06 0.06 65 1019.8